STARLINK-2421

operational
NORAD ID: 48098 Int'l Des: 2021-027 Owner: SPXS Country: US Constellation: starlink
LEOCIRCULARSTARLINK_TYPE

关于 STARLINK-2421

正在加载描述...

实时位置

正在加载3D地球...

即将过境

高度历史

Altitude vs Time

uPlot chart will show altitude changes over time

两行轨道根数

1 48098U 21027G 25251.71583649 .00000585 00000-0 58187-4 0 9990
2 48098 53.0529 258.5330 0001178 86.2696 273.8428 15.06399470245127
Epoch: Sep 8, 2025 • Age: 17 hours

当前状态

高度 550.5 km
速度 7.59 km/s
星下点 -11.32°S, 54.12°W
发射日期 Apr 7, 2021
运行时间 4.4 years
类型 internet

技术详情

分类 Payload
质量 260.00 kg
干质量 248.00 kg
总质量 260.00 kg
长度 0.20 m
直径 2.80 m
跨度 9.00 m
形状 Box + pan
制造商 SPXS
平台类型 Starlink
阶段状态 In Orbit
所有者/国家 SPXS/US

大型星座

Loading constellations...